Time,TemperatureF,DewpointF,PressureIn,WindDirection,WindDirectionDegrees,WindSpeedMPH,WindSpeedGustMPH,Humidity,HourlyPrecipIn,Conditions,Clouds,dailyrainin,SoftwareType,DateUTC
2017-06-29 00:13:00,55.7,54.0,30.10,WSW,240,0.0,0.0,93,0.00,,,0.00,weatherlink.com 1.10,2017-06-29 04:13:00,
2017-06-29 00:28:00,55.6,54.0,30.11,WSW,240,0.0,0.0,93,0.00,,,0.00,weatherlink.com 1.10,2017-06-29 04:28:00,
2017-06-29 00:43:00,55.1,53.0,30.10,WSW,240,0.0,0.0,93,0.00,,,0.00,weatherlink.com 1.10,2017-06-29 04:43:00,
2017-06-29 00:58:00,55.2,54.0,30.11,WSW,240,0.0,0.0,94,0.00,,,0.00,weatherlink.com 1.10,2017-06-29 04:58:00,
2017-06-29 01:13:00,55.2,54.0,30.11,WSW,240,0.0,0.0,94,0.00,,,0.00,weatherlink.com 1.10,2017-06-29 05:13:00,
2017-06-29 01:28:00,55.0,53.0,30.11,WSW,240,0.0,0.0,94,0.00,,,0.00,weatherlink.com 1.10,2017-06-29 05:28:00,
2017-06-29 01:43:00,54.7,53.0,30.11,WSW,240,0.0,0.0,94,0.00,,,0.00,weatherlink.com 1.10,2017-06-29 05:43:00,
2017-06-29 01:58:00,55.0,53.0,30.11,WSW,240,0.0,0.0,94,0.00,,,0.00,weatherlink.com 1.10,2017-06-29 05:58:00,
2017-06-29 02:13:00,55.2,54.0,30.11,WSW,240,0.0,0.0,94,0.00,,,0.00,weatherlink.com 1.10,2017-06-29 06:13:00,
2017-06-29 02:28:00,55.7,54.0,30.11,WSW,240,0.0,0.0,94,0.00,,,0.00,weatherlink.com 1.10,2017-06-29 06:28:00,
2017-06-29 02:43:00,55.8,54.0,30.11,WSW,240,0.0,0.0,94,0.00,,,0.00,weatherlink.com 1.10,2017-06-29 06:43:00,
2017-06-29 02:58:00,55.8,54.0,30.11,WSW,240,0.0,0.0,94,0.00,,,0.00,weatherlink.com 1.10,2017-06-29 06:58:00,
2017-06-29 03:13:00,55.9,54.0,30.12,WSW,240,0.0,0.0,94,0.00,,,0.00,weatherlink.com 1.10,2017-06-29 07:13:00,
2017-06-29 03:29:00,56.1,54.0,30.12,WSW,240,0.0,0.0,94,0.00,,,0.00,weatherlink.com 1.10,2017-06-29 07:29:00,
2017-06-29 03:43:00,56.6,55.0,30.12,WSW,240,0.0,0.0,94,0.00,,,0.00,weatherlink.com 1.10,2017-06-29 07:43:00,
2017-06-29 03:59:00,57.0,55.0,30.12,WSW,240,0.0,0.0,92,0.00,,,0.00,weatherlink.com 1.10,2017-06-29 07:59:00,
2017-06-29 04:13:00,57.5,55.0,30.12,WSW,240,0.0,0.0,91,0.00,,,0.00,weatherlink.com 1.10,2017-06-29 08:13:00,
2017-06-29 04:29:00,57.6,55.0,30.12,WSW,240,0.0,0.0,90,0.00,,,0.00,weatherlink.com 1.10,2017-06-29 08:29:00,
2017-06-29 04:43:00,58.2,55.0,30.12,SW,219,0.0,0.0,90,0.00,,,0.00,weatherlink.com 1.10,2017-06-29 08:43:00,
2017-06-29 04:58:00,58.8,55.0,30.13,SW,219,0.0,0.0,88,0.00,,,0.00,weatherlink.com 1.10,2017-06-29 08:58:00,
2017-06-29 05:13:00,59.3,55.0,30.13,SW,220,0.0,0.0,86,0.00,,,0.00,weatherlink.com 1.10,2017-06-29 09:13:00,
2017-06-29 05:29:00,59.3,55.0,30.13,SW,219,0.0,0.0,86,0.00,,,0.00,weatherlink.com 1.10,2017-06-29 09:29:00,
2017-06-29 05:44:00,59.6,56.0,30.14,SW,219,0.0,0.0,87,0.00,,,0.00,weatherlink.com 1.10,2017-06-29 09:44:00,
2017-06-29 05:59:00,59.7,56.0,30.14,SW,219,0.0,0.0,86,0.00,,,0.00,weatherlink.com 1.10,2017-06-29 09:59:00,
2017-06-29 06:14:00,59.9,55.0,30.14,SW,220,0.0,0.0,85,0.00,,,0.00,weatherlink.com 1.10,2017-06-29 10:14:00,
2017-06-29 06:29:00,60.4,57.0,30.14,SW,219,0.0,0.0,87,0.00,,,0.00,weatherlink.com 1.10,2017-06-29 10:29:00,
2017-06-29 06:44:00,60.9,57.0,30.14,SW,219,0.0,0.0,88,0.00,,,0.00,weatherlink.com 1.10,2017-06-29 10:44:00,
2017-06-29 06:59:00,61.5,58.0,30.14,SW,219,0.0,0.0,89,0.00,,,0.00,weatherlink.com 1.10,2017-06-29 10:59:00,
2017-06-29 07:15:00,61.6,58.0,30.14,SW,219,0.0,0.0,89,0.00,,,0.00,weatherlink.com 1.10,2017-06-29 11:15:00,
2017-06-29 07:29:00,62.2,59.0,30.14,SW,219,0.0,0.0,90,0.00,,,0.00,weatherlink.com 1.10,2017-06-29 11:29:00,
2017-06-29 07:44:00,62.7,60.0,30.15,SW,219,0.0,0.0,89,0.00,,,0.00,weatherlink.com 1.10,2017-06-29 11:44:00,
2017-06-29 07:59:00,63.7,60.0,30.15,SW,219,0.0,0.0,86,0.00,,,0.00,weatherlink.com 1.10,2017-06-29 11:59:00,
2017-06-29 08:14:00,64.7,61.0,30.14,SW,219,0.0,0.0,86,0.00,,,0.00,weatherlink.com 1.10,2017-06-29 12:14:00,